User: anonymous   Login
Location: Unspecified
(0.0000°N, 0.0000°E)
Time: 01:21:01
(UTC+00:00)
Language:

LilacSat-2 - Orbit

View from above orbital plane
View from above orbital plane
View from above satellite
View from above satellite

Ground track
Ground track

The orbit data is extracted from the following two-line orbital elements,

1 40908U 15049K   18200.73874725  .00000270  00000-0  18689-4 0  9999
2 40908  97.4686 202.6443 0014380 278.1816  81.7784 15.13541279156299
Epoch (UTC): 19 July 2018 17:43:47
Eccentricity: 0.0014380
inclination: 97.4686°
perigee height: 515 km
apogee height: 535 km
right ascension of ascending node: 202.6443°
argument of perigee: 278.1816°
revolutions per day: 15.13541279
mean anomaly at epoch: 81.7784°
orbit number at epoch: 15629

The dashed part of the orbit path shows where the satellite is in the earth's shadow,  

DLR